Torna al catalogo

STARLINK-4280

AttivoComunicazioniVLEO
NORAD 53178·PAYLOAD·🇺🇸 United States

Lanciato Jul 17, 2022 da Cape Canaveral Space Force Station

Loading…

Prossimi Passaggi (prossime 24 ore)

TLE

AggiornatoSource: CelesTrak SupGP

Epoca: Sep 15, 2026, 02:15 UTC

1 53178C 22083AY  26258.09423611  .00511930  00000+0  27613-1 0  2584
2 53178  53.1609  33.1456 0001247  87.9522 118.6077 15.14005492    11

Traccia STARLINK-4280 in tempo reale con AllMySat

Download on the App Store